This is the latest recevied weather packets stored in our database for station/object EA3GKP-10. If no packets are shown the sender has not sent any weather packets the latest 10 day(s).
| Time | Temp. | Humidity | Pressure | Rain* | Wind** | Luminosity | Snow |
|---|---|---|---|---|---|---|---|
| 1777656977 | 20.56° C | - | - | 0 mm | 2.24 m/s, 121° | - | - |
| 1777656675 | 20.56° C | - | - | 0 mm | 1.79 m/s, 90° | - | - |
| 1777656370 | 21.11° C | - | - | 0 mm | 1.34 m/s, 111° | - | - |
| 1777656067 | 20.56° C | - | - | 0 mm | 0 m/s | - | - |
| 1777655764 | 21.67° C | - | - | 0 mm | 1.34 m/s, 143° | - | - |
| 1777655461 | 21.11° C | - | - | 0 mm | 1.34 m/s, 52° | - | - |
| 1777655158 | 21.11° C | - | - | 0 mm | 1.34 m/s, 217° | - | - |
| 1777654855 | 21.11° C | - | - | 0 mm | 1.79 m/s, 186° | - | - |
| 1777654552 | 21.67° C | - | - | 0 mm | 1.34 m/s, 193° | - | - |
| 1777653944 | 21.67° C | - | - | 0 mm | 0 m/s | - | - |
| 1777653639 | 21.11° C | - | - | 0 mm | 0.89 m/s, 111° | - | - |
| 1777652117 | 21.67° C | - | - | 0 mm | 0.89 m/s, 93° | - | - |
| 1777651814 | 22.22° C | - | - | 0 mm | 0.45 m/s, 210° | - | - |
| 1777651511 | 21.67° C | - | - | 0 mm | 0.45 m/s, 212° | - | - |
| 1777650296 | 21.11° C | - | - | 0 mm | 1.34 m/s, 93° | - | - |
| 1777649687 | 22.78° C | - | - | 0 mm | 2.24 m/s, 97° | - | - |
| 1777649384 | 22.22° C | - | - | 0 mm | 1.34 m/s, 122° | - | - |
| 1777649080 | 21.67° C | - | - | 0 mm | 1.79 m/s, 46° | - | - |
| 1777648778 | 22.78° C | - | - | 0 mm | 1.34 m/s, 83° | - | - |
| 1777648475 | 23.33° C | - | - | 0 mm | 0.89 m/s, 156° | - | - |
| 1777648172 | 22.78° C | - | - | 0 mm | 1.34 m/s, 166° | - | - |
| 1777647869 | 22.78° C | - | - | 0 mm | 0 m/s | - | - |
| 1777647564 | 22.78° C | - | - | 0 mm | 2.24 m/s, 188° | - | - |
| 1777646955 | 23.33° C | - | - | 0 mm | 0.89 m/s, 156° | - | - |
| 1777646652 | 22.78° C | - | - | 0 mm | 1.79 m/s, 89° | - | - |
* Rain latest hour (hover to see other rain measurements)
** Current wind speed in m/s (hover to see current wind gust speed)